Location: Hains Lake
(37.8540°N, 99.8578°W)
Time: 12:55:23
(UTC+00:00)

ADEOS Rocket - Pass Details

Date: 11 December 2019
Orbit: 858 x 1307 km, 98.7° (Epoch: 18 January)

Event Time Altitude Azimuth Distance (km) Brightness Sun altitude
Rises 12:41:14 0° 152° (SSE) 4,120 7.1 -12.3°
Reaches altitude 10° 12:44:01 10° 148° (SSE) 3,103 6.4 -11.7°
Maximum altitude 12:50:53 57° 72° (ENE) 1,283 3.9 -10.5°
Drops below altitude 10° 12:57:06 10° 356° (N) 2,812 5.2 -9.3°
Sets 12:59:30 0° 352° (N) 3,708 5.7 -8.9°
